Time,TemperatureF,DewpointF,PressureIn,WindDirection,WindDirectionDegrees,WindSpeedMPH,WindSpeedGustMPH,Humidity,HourlyPrecipIn,Conditions,Clouds,dailyrainin,SoftwareType,DateUTC
2014-02-03 00:06:00,3.7,-2.0,30.20,SSW,208,2.0,7.0,76,0.00,,,0.00,weatherlink.com 1.10,2014-02-03 06:06:00,
2014-02-03 00:21:00,3.5,-3.0,30.19,SSW,203,0.0,4.0,76,0.00,,,0.00,weatherlink.com 1.10,2014-02-03 06:21:00,
2014-02-03 00:36:00,2.8,-3.0,30.19,SSW,204,0.0,3.0,76,0.00,,,0.00,weatherlink.com 1.10,2014-02-03 06:36:00,
2014-02-03 00:51:00,2.1,-4.0,30.19,SSW,204,0.0,3.0,76,0.00,,,0.00,weatherlink.com 1.10,2014-02-03 06:51:00,
2014-02-03 01:06:00,1.3,-5.0,30.18,SSW,203,0.0,1.0,76,0.00,,,0.00,weatherlink.com 1.10,2014-02-03 07:06:00,
2014-02-03 01:21:00,0.7,-5.0,30.18,SSW,203,0.0,2.0,77,0.00,,,0.00,weatherlink.com 1.10,2014-02-03 07:21:00,
2014-02-03 01:36:00,0.6,-5.0,30.18,SSW,204,0.0,3.0,78,0.00,,,0.00,weatherlink.com 1.10,2014-02-03 07:36:00,
2014-02-03 01:51:00,0.3,-5.0,30.18,SSW,204,1.0,3.0,78,0.00,,,0.00,weatherlink.com 1.10,2014-02-03 07:51:00,
2014-02-03 02:06:00,-0.3,-6.0,30.18,SSW,204,0.0,2.0,78,0.00,,,0.00,weatherlink.com 1.10,2014-02-03 08:06:00,
2014-02-03 02:21:00,-0.5,-6.0,30.18,SSW,203,0.0,2.0,79,0.00,,,0.00,weatherlink.com 1.10,2014-02-03 08:21:00,
2014-02-03 02:36:00,-0.8,-6.0,30.18,SSW,203,0.0,0.0,79,0.00,,,0.00,weatherlink.com 1.10,2014-02-03 08:36:00,
2014-02-03 02:51:00,-1.1,-6.0,30.18,SSW,204,0.0,0.0,79,0.00,,,0.00,weatherlink.com 1.10,2014-02-03 08:51:00,
2014-02-03 03:06:00,-1.2,-6.0,30.18,SSW,204,0.0,0.0,79,0.00,,,0.00,weatherlink.com 1.10,2014-02-03 09:06:00,
2014-02-03 03:22:00,-1.3,-6.0,30.18,SSW,204,1.0,2.0,80,0.00,,,0.00,weatherlink.com 1.10,2014-02-03 09:22:00,
2014-02-03 03:37:00,-1.3,-6.0,30.17,SSW,203,0.0,0.0,80,0.00,,,0.00,weatherlink.com 1.10,2014-02-03 09:37:00,
2014-02-03 03:52:00,-2.3,-7.0,30.17,SSW,204,0.0,0.0,79,0.00,,,0.00,weatherlink.com 1.10,2014-02-03 09:52:00,
2014-02-03 04:07:00,-2.5,-7.0,30.17,SSW,204,0.0,0.0,80,0.00,,,0.00,weatherlink.com 1.10,2014-02-03 10:07:00,
2014-02-03 04:22:00,-2.3,-7.0,30.17,SSW,204,0.0,1.0,80,0.00,,,0.00,weatherlink.com 1.10,2014-02-03 10:22:00,
2014-02-03 04:37:00,-2.7,-7.0,30.17,SSW,203,0.0,0.0,80,0.00,,,0.00,weatherlink.com 1.10,2014-02-03 10:37:00,
2014-02-03 04:53:00,-2.5,-7.0,30.17,SSW,203,0.0,0.0,80,0.00,,,0.00,weatherlink.com 1.10,2014-02-03 10:53:00,
2014-02-03 05:07:00,-1.8,-6.0,30.17,SSW,204,0.0,2.0,81,0.00,,,0.00,weatherlink.com 1.10,2014-02-03 11:07:00,
2014-02-03 05:22:00,-1.9,-7.0,30.18,SSW,204,0.0,2.0,80,0.00,,,0.00,weatherlink.com 1.10,2014-02-03 11:22:00,
2014-02-03 05:37:00,-2.2,-7.0,30.18,SSW,204,0.0,3.0,80,0.00,,,0.00,weatherlink.com 1.10,2014-02-03 11:37:00,
2014-02-03 05:52:00,-2.2,-7.0,30.17,SSW,203,0.0,1.0,81,0.00,,,0.00,weatherlink.com 1.10,2014-02-03 11:52:00,
2014-02-03 06:07:00,-1.3,-6.0,30.17,SSW,204,3.0,4.0,81,0.00,,,0.00,weatherlink.com 1.10,2014-02-03 12:07:00,
2014-02-03 06:22:00,-1.6,-6.0,30.17,SSW,204,0.0,2.0,80,0.00,,,0.00,weatherlink.com 1.10,2014-02-03 12:22:00,
2014-02-03 06:38:00,-1.9,-7.0,30.17,SSW,203,0.0,3.0,80,0.00,,,0.00,weatherlink.com 1.10,2014-02-03 12:38:00,
2014-02-03 06:53:00,-1.6,-6.0,30.17,SSW,203,0.0,3.0,81,0.00,,,0.00,weatherlink.com 1.10,2014-02-03 12:53:00,
2014-02-03 07:08:00,-2.0,-7.0,30.17,SSW,204,0.0,0.0,80,0.00,,,0.00,weatherlink.com 1.10,2014-02-03 13:08:00,
2014-02-03 07:23:00,-2.1,-7.0,30.17,SSW,204,0.0,0.0,80,0.00,,,0.00,weatherlink.com 1.10,2014-02-03 13:23:00,
2014-02-03 07:38:00,1.3,-3.0,30.18,SSW,204,2.0,4.0,83,0.00,,,0.00,weatherlink.com 1.10,2014-02-03 13:38:00,
2014-02-03 07:53:00,2.7,-2.0,30.18,SSW,207,2.0,5.0,81,0.00,,,0.00,weatherlink.com 1.10,2014-02-03 13:53:00,
2014-02-03 08:08:00,3.1,-2.0,30.18,SW,214,2.0,6.0,80,0.00,,,0.00,weatherlink.com 1.10,2014-02-03 14:08:00,
2014-02-03 08:23:00,3.8,-1.0,30.19,SW,227,2.0,7.0,79,0.00,,,0.00,weatherlink.com 1.10,2014-02-03 14:23:00,
2014-02-03 08:38:00,4.3,-1.0,30.20,SW,229,3.0,5.0,78,0.00,,,0.00,weatherlink.com 1.10,2014-02-03 14:38:00,
2014-02-03 08:53:00,5.2,0.0,30.20,SW,218,5.0,9.0,78,0.00,,,0.00,weatherlink.com 1.10,2014-02-03 14:53:00,
2014-02-03 09:08:00,5.8,0.0,30.20,SW,232,8.0,10.0,78,0.00,,,0.00,weatherlink.com 1.10,2014-02-03 15:08:00,
2014-02-03 09:23:00,6.8,1.0,30.20,WSW,248,4.0,9.0,77,0.00,,,0.00,weatherlink.com 1.10,2014-02-03 15:23:00,
2014-02-03 09:38:00,7.6,2.0,30.20,SW,224,4.0,8.0,76,0.00,,,0.00,weatherlink.com 1.10,2014-02-03 15:38:00,
2014-02-03 09:53:00,8.5,2.0,30.20,West,274,4.0,8.0,75,0.00,,,0.00,weatherlink.com 1.10,2014-02-03 15:53:00,
2014-02-03 10:09:00,9.5,3.0,30.21,WSW,242,3.0,9.0,75,0.00,,,0.00,weatherlink.com 1.10,2014-02-03 16:09:00,
2014-02-03 10:24:00,10.6,4.0,30.21,WSW,254,7.0,10.0,74,0.00,,,0.00,weatherlink.com 1.10,2014-02-03 16:24:00,
2014-02-03 10:39:00,11.3,5.0,30.21,WSW,240,3.0,8.0,74,0.00,,,0.00,weatherlink.com 1.10,2014-02-03 16:39:00,
2014-02-03 11:09:00,12.7,5.0,30.21,WSW,237,4.0,9.0,72,0.00,,,0.00,weatherlink.com 1.10,2014-02-03 17:09:00,
2014-02-03 11:24:00,13.6,6.0,30.20,WSW,240,6.0,8.0,72,0.00,,,0.00,weatherlink.com 1.10,2014-02-03 17:24:00,
2014-02-03 11:39:00,14.3,7.0,30.20,WSW,238,2.0,9.0,71,0.00,,,0.00,weatherlink.com 1.10,2014-02-03 17:39:00,
2014-02-03 11:54:00,14.6,7.0,30.19,WSW,245,5.0,8.0,72,0.00,,,0.00,weatherlink.com 1.10,2014-02-03 17:54:00,
2014-02-03 12:09:00,15.6,8.0,30.18,WSW,254,2.0,10.0,72,0.00,,,0.00,weatherlink.com 1.10,2014-02-03 18:09:00,
2014-02-03 12:24:00,16.9,9.0,30.18,SW,226,4.0,10.0,70,0.00,,,0.00,weatherlink.com 1.10,2014-02-03 18:24:00,
2014-02-03 12:39:00,16.6,8.0,30.18,West,271,3.0,10.0,70,0.00,,,0.00,weatherlink.com 1.10,2014-02-03 18:39:00,
2014-02-03 12:54:00,16.4,8.0,30.18,West,273,2.0,9.0,70,0.00,,,0.00,weatherlink.com 1.10,2014-02-03 18:54:00,
2014-02-03 13:09:00,16.5,8.0,30.19,West,276,3.0,11.0,70,0.00,,,0.00,weatherlink.com 1.10,2014-02-03 19:09:00,
2014-02-03 13:25:00,16.7,9.0,30.18,West,279,2.0,7.0,72,0.00,,,0.00,weatherlink.com 1.10,2014-02-03 19:25:00,
2014-02-03 13:40:00,17.8,10.0,30.18,West,277,3.0,9.0,71,0.00,,,0.00,weatherlink.com 1.10,2014-02-03 19:40:00,
2014-02-03 13:55:00,17.9,10.0,30.18,WSW,258,0.0,8.0,71,0.00,,,0.00,weatherlink.com 1.10,2014-02-03 19:55:00,
2014-02-03 14:10:00,18.4,10.0,30.18,West,264,1.0,8.0,70,0.00,,,0.00,weatherlink.com 1.10,2014-02-03 20:10:00,
2014-02-03 14:25:00,18.0,10.0,30.18,WSW,254,2.0,7.0,72,0.00,,,0.00,weatherlink.com 1.10,2014-02-03 20:25:00,
2014-02-03 14:40:00,18.5,11.0,30.19,WSW,255,3.0,5.0,71,0.00,,,0.00,weatherlink.com 1.10,2014-02-03 20:40:00,
2014-02-03 14:55:00,18.1,10.0,30.19,West,259,3.0,7.0,71,0.00,,,0.00,weatherlink.com 1.10,2014-02-03 20:55:00,
2014-02-03 15:10:00,17.8,10.0,30.19,West,259,1.0,6.0,72,0.00,,,0.00,weatherlink.com 1.10,2014-02-03 21:10:00,
2014-02-03 15:25:00,18.2,10.0,30.19,WSW,257,0.0,4.0,71,0.00,,,0.00,weatherlink.com 1.10,2014-02-03 21:25:00,
2014-02-03 15:40:00,18.5,11.0,30.20,WSW,258,0.0,3.0,72,0.00,,,0.00,weatherlink.com 1.10,2014-02-03 21:40:00,
2014-02-03 15:55:00,18.1,11.0,30.21,WSW,258,3.0,4.0,72,0.00,,,0.00,weatherlink.com 1.10,2014-02-03 21:55:00,
2014-02-03 16:10:00,17.0,10.0,30.22,WSW,258,4.0,6.0,74,0.00,,,0.00,weatherlink.com 1.10,2014-02-03 22:10:00,
2014-02-03 16:25:00,16.7,10.0,30.22,WSW,256,1.0,4.0,75,0.00,,,0.00,weatherlink.com 1.10,2014-02-03 22:25:00,
2014-02-03 16:40:00,16.9,10.0,30.21,WSW,254,1.0,7.0,74,0.00,,,0.00,weatherlink.com 1.10,2014-02-03 22:40:00,
2014-02-03 16:56:00,16.8,10.0,30.20,WSW,254,0.0,3.0,74,0.00,,,0.00,weatherlink.com 1.10,2014-02-03 22:56:00,
2014-02-03 17:11:00,16.1,10.0,30.21,WSW,254,0.0,2.0,75,0.00,,,0.00,weatherlink.com 1.10,2014-02-03 23:11:00,
2014-02-03 17:26:00,15.9,10.0,30.21,WSW,254,0.0,1.0,76,0.00,,,0.00,weatherlink.com 1.10,2014-02-03 23:26:00,
2014-02-03 17:41:00,15.6,9.0,30.20,WSW,254,0.0,0.0,76,0.00,,,0.00,weatherlink.com 1.10,2014-02-03 23:41:00,
2014-02-03 17:56:00,15.3,9.0,30.20,WSW,254,0.0,0.0,77,0.00,,,0.00,weatherlink.com 1.10,2014-02-03 23:56:00,
2014-02-03 18:11:00,14.7,9.0,30.20,WSW,254,0.0,1.0,77,0.00,,,0.00,weatherlink.com 1.10,2014-02-04 00:11:00,
2014-02-03 18:26:00,13.9,8.0,30.21,WSW,254,0.0,2.0,78,0.00,,,0.00,weatherlink.com 1.10,2014-02-04 00:26:00,
2014-02-03 18:41:00,13.6,8.0,30.20,WSW,254,0.0,1.0,79,0.00,,,0.00,weatherlink.com 1.10,2014-02-04 00:41:00,
2014-02-03 18:56:00,13.6,9.0,30.21,WSW,254,0.0,0.0,80,0.00,,,0.00,weatherlink.com 1.10,2014-02-04 00:56:00,
2014-02-03 19:11:00,13.8,9.0,30.21,WSW,254,0.0,0.0,80,0.00,,,0.00,weatherlink.com 1.10,2014-02-04 01:11:00,
2014-02-03 19:26:00,14.1,9.0,30.22,WSW,254,0.0,0.0,81,0.00,,,0.00,weatherlink.com 1.10,2014-02-04 01:26:00,
2014-02-03 19:41:00,14.4,10.0,30.21,WSW,254,0.0,3.0,81,0.00,,,0.00,weatherlink.com 1.10,2014-02-04 01:41:00,
2014-02-03 19:56:00,14.3,9.0,30.22,WSW,254,1.0,3.0,80,0.00,,,0.00,weatherlink.com 1.10,2014-02-04 01:56:00,
2014-02-03 20:12:00,13.8,8.0,30.22,WSW,255,0.0,3.0,79,0.00,,,0.00,weatherlink.com 1.10,2014-02-04 02:12:00,
2014-02-03 20:27:00,13.6,8.0,30.23,WSW,255,0.0,2.0,79,0.00,,,0.00,weatherlink.com 1.10,2014-02-04 02:27:00,
2014-02-03 20:42:00,13.7,8.0,30.23,WSW,254,2.0,4.0,78,0.00,,,0.00,weatherlink.com 1.10,2014-02-04 02:42:00,
2014-02-03 20:57:00,13.6,8.0,30.23,WSW,255,0.0,2.0,78,0.00,,,0.00,weatherlink.com 1.10,2014-02-04 02:57:00,
2014-02-03 21:12:00,13.4,8.0,30.23,WSW,255,0.0,3.0,78,0.00,,,0.00,weatherlink.com 1.10,2014-02-04 03:12:00,
2014-02-03 21:27:00,13.2,8.0,30.23,WSW,255,1.0,3.0,78,0.00,,,0.00,weatherlink.com 1.10,2014-02-04 03:27:00,
2014-02-03 21:42:00,13.1,7.0,30.24,WSW,254,0.0,1.0,78,0.00,,,0.00,weatherlink.com 1.10,2014-02-04 03:42:00,
2014-02-03 21:57:00,13.2,8.0,30.25,WSW,255,1.0,2.0,78,0.00,,,0.00,weatherlink.com 1.10,2014-02-04 03:57:00,
2014-02-03 22:12:00,13.3,8.0,30.25,WSW,255,2.0,4.0,78,0.00,,,0.00,weatherlink.com 1.10,2014-02-04 04:12:00,
2014-02-03 22:27:00,13.2,8.0,30.25,WSW,256,1.0,3.0,78,0.00,,,0.00,weatherlink.com 1.10,2014-02-04 04:27:00,
2014-02-03 22:42:00,13.1,7.0,30.25,WSW,256,2.0,3.0,78,0.00,,,0.00,weatherlink.com 1.10,2014-02-04 04:42:00,
2014-02-03 22:57:00,13.0,7.0,30.25,WSW,257,0.0,3.0,78,0.00,,,0.00,weatherlink.com 1.10,2014-02-04 04:57:00,
2014-02-03 23:12:00,12.8,7.0,30.25,West,263,3.0,4.0,78,0.00,,,0.00,weatherlink.com 1.10,2014-02-04 05:12:00,
2014-02-03 23:27:00,12.6,7.0,30.26,WNW,302,2.0,7.0,78,0.00,,,0.00,weatherlink.com 1.10,2014-02-04 05:27:00,
2014-02-03 23:43:00,12.6,7.0,30.25,NW,306,1.0,5.0,78,0.00,,,0.00,weatherlink.com 1.10,2014-02-04 05:43:00,
2014-02-03 23:58:00,12.7,7.0,30.26,NW,309,0.0,4.0,78,0.00,,,0.00,weatherlink.com 1.10,2014-02-04 05:58:00,